{"data":{"norad_id":42846,"intl_designator":"2017-042X","name":"CORVUS BC2","alt_names":[],"object_type":"PAYLOAD","status":"ACTIVE","operator":null,"country":"US","launch_date":"2017-07-14","launch_site_code":"TYMSC","launch_vehicle":null,"mission":null,"orbit_class":"UNKNOWN","rcs_meters":null,"size_class":null,"mass_kg":null,"dimensions":null,"purposes":["tech_demo"],"wikipedia_slug":null,"has_3d_model":false,"image_url":null,"decayed_at":null,"tle_current":{"epoch":"2026-09-19T21:47:29.452128Z","epoch_age_seconds":69363,"freshness":"FRESH","line1":"1 42846U 17042X   26262.90797977  .00002290  00000+0  15752-3 0  9996","line2":"2 42846  97.4186  60.6776 0013837 142.3125 217.9075 15.06791491501328","mean_motion":15.06791491,"eccentricity":0.0013837,"inclination_deg":97.4186,"raan_deg":60.6776,"arg_perigee_deg":142.3125,"mean_anomaly_deg":217.9075,"bstar":0.00015752,"rev_number":50132,"period_min":95.567303678117,"perigee_km":536.43100929597,"apogee_km":555.59289911184,"semimajor_km":6924.1489542039,"source":"CELESTRAK","updated_at":"2026-09-20T09:00:48.032384Z"}}}